MST,Max TemperatureF,Mean TemperatureF,Min TemperatureF,Max Dew PointF,MeanDew PointF,Min DewpointF,Max Humidity, Mean Humidity, Min Humidity, Max Sea Level PressureIn, Mean Sea Level PressureIn, Min Sea Level PressureIn, Max VisibilityMiles, Mean VisibilityMiles, Min VisibilityMiles, Max Wind SpeedMPH, Mean Wind SpeedMPH, Max Gust SpeedMPH,PrecipitationIn, CloudCover, Events, WindDirDegrees
2011-11-1,36,35,33,36,30,26,96,89,82,30.50,30.21,30.08,10,6,1,21,9,25,0.21,8,Rain-Snow,285
2011-11-2,41,28,14,24,18,11,88,64,40,30.58,30.45,30.25,10,10,10,15,3,18,0.00,0,,179
2011-11-3,50,34,18,29,21,14,88,65,42,30.23,29.97,29.74,10,10,10,10,3,12,0.00,0,,257
2011-11-4,59,41,23,31,24,19,88,59,29,29.80,29.64,29.44,10,10,10,22,3,24,0.00,0,,198
2011-11-5,40,34,28,26,24,21,85,69,53,29.75,29.57,29.46,10,10,4,29,17,36,T,6,Snow,316
2011-11-6,38,28,18,24,19,15,92,68,44,30.12,29.90,29.71,10,10,8,21,6,22,T,2,Snow,288
2011-11-7,44,29,14,22,16,10,88,63,37,30.22,30.16,30.06,10,10,10,8,2,12,0.00,0,,322
2011-11-8,45,31,16,21,15,10,80,57,33,30.39,30.25,30.05,10,10,10,23,6,30,0.00,2,,283
2011-11-9,46,33,19,20,18,14,77,57,37,30.53,30.44,30.26,10,10,10,16,5,20,0.00,3,,311
2011-11-10,59,38,17,27,17,7,84,51,18,30.35,30.07,29.86,10,10,10,16,4,21,0.00,0,,274
2011-11-11,65,50,35,18,11,3,40,25,9,29.83,29.63,29.37,10,10,10,24,6,29,0.00,0,,239
2011-11-12,54,42,29,31,23,16,82,55,27,29.49,29.39,29.31,10,10,9,35,9,41,T,4,Rain-Snow,341
2011-11-13,51,41,31,28,17,12,75,48,21,29.55,29.43,29.33,10,10,10,32,13,40,T,6,,272
2011-11-14,48,39,29,28,21,10,85,54,23,29.68,29.55,29.43,10,9,0,37,10,48,0.02,6,Fog-Snow,287
2011-11-15,31,27,22,28,19,12,92,71,50,30.19,29.92,29.65,10,6,0,24,10,29,0.17,8,Fog-Snow,311
2011-11-16,30,19,8,18,8,1,81,57,33,30.39,30.27,30.11,10,9,2,29,7,35,T,2,Snow,233
2011-11-17,57,33,9,31,20,3,89,57,24,30.08,29.75,29.52,10,9,1,32,7,39,0.06,3,Snow,282
2011-11-18,32,23,14,30,27,26,92,89,85,29.84,29.68,29.63,10,3,0,14,7,16,0.41,8,Fog-Snow,358
2011-11-19,14,2,-10,1,-4,-13,90,82,73,30.22,29.92,29.68,10,7,2,24,7,29,0.01,5,Snow,320
2011-11-20,18,4,-10,8,-2,-14,92,77,61,30.27,30.14,29.89,10,10,10,8,3,10,0.00,0,,348
2011-11-21,28,16,3,18,8,-1,86,77,67,30.17,30.09,29.85,10,10,10,9,2,12,0.00,0,,212
2011-11-22,44,30,15,24,18,10,75,64,52,30.14,30.03,29.88,10,10,10,10,4,14,0.00,0,,214
2011-11-23,54,38,22,30,24,18,81,57,32,30.08,29.92,29.78,10,10,10,22,5,24,0.00,0,,316
2011-11-24,47,38,29,29,26,21,82,64,45,29.78,29.75,29.67,10,10,10,14,4,21,0.00,0,,271
2011-11-25,50,40,30,28,22,12,75,52,29,30.38,29.89,29.65,10,9,1,43,14,51,0.01,4,Snow-Thunderstorm,317
2011-11-26,38,30,21,18,14,10,77,56,35,30.66,30.52,30.40,10,10,10,39,9,47,0.00,2,,307
2011-11-27,52,37,22,33,25,16,82,63,44,30.40,30.19,29.99,10,10,10,12,2,12,0.00,0,,270
2011-11-28,50,38,26,30,27,24,85,66,46,30.40,30.26,29.98,10,10,10,15,5,20,0.00,2,,36
2011-11-29,46,34,21,32,26,19,92,75,58,30.31,30.19,29.98,10,10,10,8,3,10,0.00,1,,324
2011-11-30,41,34,26,34,29,23,89,82,75,30.42,30.12,29.89,10,8,1,35,11,46,0.19,8,Rain-Snow,303